Sign in Sign up

Gangneung

Pos Pair Lane Name Born Nation Time
1 11 O Ireen Wst 1986 Netherlands 1:54.35
2 14 O Miho Takagi 1994 Japan 1:54.55
3 12 I Marrit Leenstra 1989 Netherlands 1:55.26
4 13 I Lotte van Beek 1991 Netherlands 1:55.27
5 7 O Brittany Bowe 1988 USA 1:55.54
6 2 O Nao Kodaira 1985 Japan 1:56.11
7 10 I Ida Njtun 1991 Norway 1:56.46
8 14 I Heather Bergsma 1989 USA 1:56.74
9 7 I Natalia Czerwonka 1988 Poland 1:57.85
10 4 O Francesca Lollobrigida 1991 Italy 1:57.94
11 8 I Nikola Zdrhalov 1996 Czech Republic 1:58.03
12 6 I Gabriele Hirschbichler 1983 Germany 1:58.24
13 12 O Katarzyna Bachleda-Curuś 1980 Poland 1:58.51
14 5 O Seon-Yeong Noh 1989 South Korea 1:58.75
15 11 I Brianne Tutt 1992 Canada 1:58.77
16 13 O Ayaka Kikuchi 1987 Japan 1:58.92
17 8 O Luiza Zlotkowska 1986 Poland 1:58.99
18 5 I Yekaterina Aydova 1991 Kazakhstan 1:59.05
19 9 O Kali Christ 1991 Canada 1:59.42
20 10 O Jiachen Hao 1992 China 1:59.58
21 1 I Josie Morrison 1994 Canada 1:59.77
22 4 I Mia Manganello 1989 USA 1:59.93
23 3 I Ruining Tian 1997 China 2:00.29
24 9 I Roxanne Dufter 1992 Germany 2:00.33
25 2 I Francesca Bettrone 1991 Italy 2:00.43
26 6 O Yu-Ting Huang 1988 Taiwan 2:18.84
DSQ 3 O Marina Zueva 1992 Belarus 1:58.95

Info

What Olympic Winter Games 2018
Discipline 1.500
Host Gangneung
Nation South Korea
Date Monday 12.Feb 2018
Calendar 2017/2018
Air Temp 15.5 C
Ice Temp -9.6 C
Humidity 26.0 %